Regional Weather Roundup
Issued by NWS Spokane, WA

Home | Current Version | Previous Version | Text Only | Print | Product List | Glossary On
Versions: 1 2 3 4 5 6 7 8 9 10 11 12 13 14 15 16 17 18 19 20 21 22 23 24 25 26 27 28 29 30 31 32 33 34 35 36 37 38 39 40 41 42 43 44 45 46 47 48 49 50
000
NZUS01 KOTX 252105
RWROTX
EASTERN WASHINGTON/NORTHERN IDAHO ROUNDUP
NATIONAL WEATHER SERVICE, SPOKANE WA
100 PM PST TUE NOV 25 2014

Note: "fair" indicated few or no clouds below 12,000 feet with no
significant weather and/or obstructions to visibility.

...NORTHEAST WASHINGTON AND NORTHERN IDAHO PANHANDLE...

CITY           SKY/WX    TMP DP  RH WIND       PRES   REMARKS
SPOKANE INTL   CLOUDY    39  34  82 N5        30.19R
SPOKANE DOWNTO CLOUDY    42  36  79 N3        30.20R
COEUR D ALENE  CLOUDY    39  36  87 S6        30.15F
DEER PARK      CLOUDY    38  36  92 SW5       30.18F
SANDPOINT      CLOUDY    37  37 100 N6        30.14S

...SOUTHEAST WASHINGTON AND SOUTHERN IDAHO PANHANDLE...

CITY           SKY/WX    TMP DP  RH WIND       PRES   REMARKS
WALLA WALLA    LGT RAIN  47  45  93 S9        30.19R FOG
PULLMAN/MOSCOW LGT RAIN  41  39  93 N14       30.15F FOG
LEWISTON       LGT RAIN  47  45  93 W3        30.17R
LOWELL           N/A     36  34  92 CALM      30.19R

...COLUMBIA BASIN...

CITY           SKY/WX    TMP DP  RH WIND       PRES   REMARKS
EPHRATA        LGT RAIN  41  38  89 N10       30.21F
MOSES LAKE     CLOUDY    42  40  92 N12       30.23S
TRI CITIES     LGT RAIN  45  43  93 NW7       30.24R
HERMISTON      CLOUDY    66  49  54 W23G36    30.15S
PENDLETON      CLOUDY    60  49  66 W21G29    30.16R

...EAST SLOPES CASCADES...

CITY           SKY/WX    TMP DP  RH WIND       PRES   REMARKS
THE DALLES     CLOUDY    61  52  72 NW15      30.20F
YAKIMA         CLOUDY    53  44  71 E6        30.15F
ELLENSBURG     CLOUDY    46  41  82 SE8       30.17S
WENATCHEE      LGT RAIN  40  37  89 SW3       30.24S VSB 1/2
OMAK           LGT RAIN  35  34  96 NW8       30.25S WCI  29

...SOUTHERN BRITISH COLUMBIA...

CITY           SKY/WX    TMP DP  RH WIND       PRES   REMARKS
CASTLEGAR      CLOUDY    36  34  93 S2        30.21R

...WESTERN MONTANA...

CITY           SKY/WX    TMP DP  RH WIND       PRES   REMARKS
MISSOULA       LGT RAIN  36  34  92 NW7       30.13R

...NEIGHBORING CITIES...

CITY           SKY/WX    TMP DP  RH WIND       PRES   REMARKS
SEATTLE        LGT RAIN  50  46  87 E5        30.20F FOG



USA.gov is the U.S. government's official web portal to all federal, state and local government web resources and services.